Regional Weather Roundup
Issued by NWS

Home | Current Version | Previous Version | Graphics & Text | Print | Product List | Glossary On
Versions: 1 2 3 4 5 6 7 8 9 10 11 12 13 14 15 16 17 18 19 20 21 22 23 24 25 26 27 28 29 30 31 32 33 34 35 36 37 38 39 40 41 42 43 44 45 46 47 48 49 50
000
ASUS45 KABQ 200410
RWRNM
NEW MEXICO REGIONAL WEATHER ROUNDUP
NATIONAL WEATHER SERVICE ALBUQUERQUE NM
900 PM MST SUN FEB 19 2017

NOTE: "FAIR" MEANS FEW OR NO CLOUDS BELOW 12,000 FEET AGL WITH NO
       SIGNIFICANT WEATHER OR OBSTRUCTIONS TO VISION.

      THIS PRODUCT IS RELEASED AS TWO VERSIONS.  ONE VERSION NEAR
      THE TOP OF THE HOUR CONTAINING PRELIMINARY DATA FROM ALBUQUERQUE
      AND OTHER STATIONS.  A FINAL VERSION WITH ADDITIONAL DATA IS
      ISSUED ABOUT 10 MINUTES AFTER THE HOUR.

NMZ501-503-504-510>518-200500-
NORTHWEST PLATEAU/NORTHCENTRAL MOUNTAINS

CITY           SKY/WX    TMP DP  RH WIND       PRES   REMARKS
FARMINGTON     CLOUDY    38  35  89 CALM      29.95R
LOS ALAMOS     FAIR      37  25  62 CALM      29.95R
SANTA FE       FAIR      36  29  75 CALM      29.94R
TAOS           MOCLDY    34  21  60 SW10      29.93R WCI  26
ANGEL FIRE     CLOUDY    31  24  73 W8        29.92R WCI  24

$$
NMZ402-403-502-505>509-200500-
WESTCENTRAL MOUNTAINS/SOUTHWEST MOUNTAINS

CITY           SKY/WX    TMP DP  RH WIND       PRES   REMARKS
GALLUP         CLOUDY    36  34  92 SW9       30.02R WCI  29
GRANTS         CLOUDY    34  32  90 CALM      30.02R
SILVER CITY    MOCLDY    40  36  84 W7        30.06R

$$
NMZ407-409-411-412-200500-
SOUTHERN DESERTS

CITY           SKY/WX    TMP DP  RH WIND       PRES   REMARKS
DEMING         MOCLDY    45  37  73 W9        30.06R
LAS CRUCES     FAIR      46  33  60 W13       30.04R
HOLLOMAN AFB   FAIR      47  31  52 VRB3      30.04R
ALAMOGORDO     FAIR      46  28  49 S3        30.02R
T OR C         FAIR      45  30  55 NW8       30.01R

$$
NMZ519>523-200500-
CENTRAL VALLEYS/CENTRAL HIGHLANDS

CITY           SKY/WX    TMP DP  RH WIND       PRES   REMARKS
ALBUQUERQUE    MOCLDY    46  31  55 W6        29.98R
DOUBLE EAGLE   MOCLDY    39  32  75 SW7       29.97R WCI  34
MORIARTY ARPT  CLOUDY    41  35  79 W12       29.99R
CLINES CORNERS CLOUDY    33  31  92 W15       29.97R WCI  23
BELEN          MOCLDY    42  34  73 SW7       29.99R
SOCORRO        CLOUDY    47  32  56 CALM      30.00R

$$
NMZ524>526-539-540-200500-
SOUTHCENTRAL MOUNTAINS

CITY           SKY/WX    TMP DP  RH WIND       PRES   REMARKS
RUIDOSO        FAIR      36  27  69 SW23      29.99R WCI  24

$$
NMZ527>531-200500-
NORTHEAST HIGHLANDS/NORTHEAST PLAINS

CITY           SKY/WX    TMP DP  RH WIND       PRES   REMARKS
LAS VEGAS      FAIR      34  23  64 SW14      29.89R WCI  25
RATON          FAIR      40  19  43 SW12      29.79R WCI  33
CLAYTON        FAIR      42  29  59 SW10      29.77S

$$
NMZ532>537-200500-
EASTCENTRAL PLAINS

CITY           SKY/WX    TMP DP  RH WIND       PRES   REMARKS
TUCUMCARI      FAIR      49  29  46 W9        29.81S
CANNON AFB     FAIR      41  30  65 W7        29.87S
CLOVIS AIRPORT FAIR      41  28  60 W9        29.86S

$$
NMZ028-029-538-200500-
SOUTHEAST PLAINS

CITY           SKY/WX    TMP DP  RH WIND       PRES   REMARKS
ROSWELL        FAIR      47  26  44 W13         N/A
ARTESIA        FAIR      48  28  46 W13       29.92S
CARLSBAD       FAIR      49  28  44 W8        29.92R
HOBBS          FAIR      50  25  37 SW9       29.93R


$$



USA.gov is the U.S. government's official web portal to all federal, state and local government web resources and services.